Wind_Speed
14 17 19 15 11 11 12 17 23 22 17 15 15 13 14 14 9 7 8 9 12 8 7 9 11 14 14 13 12 14 16 19 21 25 30 33 34 33 32 33 32 31 31 28 26 27 26 24 24 23 22 21 19 18 18 17 17 18 18 18 18 18 19
14 13 14 17 17 13 10 13 17 18 18 17 16 12 10 10 6 8 11 11 17 11 8 12 14 15 15 13 13 15 16 18 19 20 25 30 33 34 34 35 33 32 33 30 28 28 27 24 24 23 23 22 20 18 18 17 18 18 19 19 19 19 19
13 12 11 16 20 21 18 13 8 12 17 16 16 12 7 8 6 6 10 9 12 8 8 15 18 15 14 13 13 14 16 17 17 17 20 24 30 34 36 37 36 35 34 30 28 27 26 24 24 24 24 23 21 19 18 18 18 18 19 20 20 19 19
11 12 14 16 18 22 22 17 11 12 16 14 16 14 10 9 6 5 8 6 6 6 9 15 16 14 14 15 14 14 17 17 15 17 19 21 26 33 38 40 40 38 35 30 28 26 25 24 24 23 24 23 21 20 19 18 19 19 20 20 20 20 19
10 12 15 16 16 19 21 19 14 14 14 12 12 15 16 14 8 6 5 1 4 6 14 15 13 14 17 17 16 15 17 18 16 17 20 22 24 28 35 41 43 41 37 32 29 27 25 24 24 24 23 23 22 21 19 19 20 20 21 21 20 20 20
11 10 8 12 16 17 19 20 16 12 12 13 10 10 15 16 12 10 7 1 4 6 14 16 15 17 18 16 14 14 15 17 16 17 19 21 23 24 29 38 44 43 38 33 30 28 26 24 24 25 24 24 24 22 21 20 21 21 21 21 20 21 21
16 14 5 7 15 17 18 20 19 15 14 16 15 11 10 12 13 15 15 6 6 8 11 16 16 16 16 13 11 12 15 17 17 17 17 19 20 21 25 33 42 43 38 34 31 29 27 25 24 26 27 27 26 25 23 22 22 22 21 21 21 21 20
16 16 11 11 16 18 21 21 21 21 19 17 17 13 12 15 14 13 13 6 7 8 9 12 13 14 13 12 11 11 13 17 17 18 18 17 18 20 23 29 38 41 38 35 32 30 29 28 28 28 28 28 27 26 24 23 23 23 23 23 21 21 21
9 9 11 13 14 13 17 18 17 20 20 18 17 15 14 16 18 14 9 0 7 5 7 8 7 9 10 12 14 13 13 16 18 18 17 16 17 18 20 25 34 40 40 37 34 31 31 32 31 30 29 28 27 27 25 25 25 24 24 25 24 22 22
4 3 8 11 10 8 9 15 17 19 20 17 16 19 14 11 17 17 7 6 7 3 4 5 5 5 7 13 17 16 17 18 18 18 17 16 17 16 16 19 27 35 39 39 37 34 33 33 32 30 29 27 27 27 27 26 25 25 25 26 25 23 23
6 5 10 12 11 10 10 13 13 11 11 9 9 11 8 4 9 5 11 12 5 5 3 2 4 5 4 8 14 15 17 18 18 19 18 16 16 14 13 16 23 31 35 37 36 34 33 33 32 31 29 28 28 29 30 30 29 27 26 25 24 23 23
11 9 10 10 11 13 12 12 13 12 8 9 10 10 8 5 8 1 13 11 3 5 3 0 1 1 2 2 7 12 14 15 16 17 17 16 15 14 13 16 21 27 30 32 33 33 33 33 32 31 30 30 30 31 31 31 30 27 24 23 24 24 24
11 11 11 9 10 13 12 11 10 9 9 9 10 12 11 9 12 10 7 8 3 2 0 2 3 5 5 4 3 5 8 12 15 17 18 17 16 14 12 15 19 22 24 28 31 32 33 34 34 33 33 32 32 31 29 27 25 23 22 23 25 26 25
11 11 11 9 10 12 11 9 8 7 8 9 9 10 11 12 15 16 13 9 4 2 3 4 6 8 6 5 4 4 4 5 11 19 19 16 17 17 15 15 16 18 22 26 31 33 34 36 36 35 35 35 34 33 31 29 27 24 25 27 28 27 26
11 10 11 11 10 9 10 10 9 9 9 9 7 8 11 12 13 14 13 10 7 5 5 6 8 9 7 5 4 5 4 3 6 15 17 16 16 17 18 19 16 15 18 21 26 32 34 36 38 37 35 35 36 35 33 32 30 28 29 30 30 30 30
11 9 10 12 10 8 11 11 10 10 11 10 7 5 7 8 10 12 13 9 5 4 4 6 8 9 9 7 6 6 6 4 5 8 12 14 14 13 17 20 16 14 17 18 21 27 29 32 36 37 35 36 37 37 36 35 33 31 31 33 32 31 32
10 9 8 9 9 10 11 8 7 10 10 7 5 4 5 5 7 10 10 7 4 3 3 5 8 10 10 9 8 7 7 5 6 6 7 9 12 14 16 16 15 17 20 20 19 21 24 28 31 32 32 32 34 37 39 39 36 32 32 33 31 30 30
9 7 6 7 7 8 7 2 2 8 8 4 4 8 9 6 6 8 8 5 3 4 5 7 10 11 11 10 8 8 8 6 5 5 6 7 10 13 14 14 15 17 19 18 18 18 22 26 27 28 29 29 29 32 37 40 40 37 35 35 34 33 33
9 7 6 8 6 3 2 1 1 4 5 4 4 6 5 4 5 9 9 6 4 5 8 11 11 10 11 11 10 11 12 9 7 7 8 9 10 10 10 12 13 13 13 15 16 18 21 23 24 26 28 27 25 27 31 36 40 41 39 38 37 35 35
8 7 8 7 3 1 1 2 2 4 4 5 5 4 3 3 7 10 8 6 7 8 9 12 12 10 11 12 12 13 13 12 12 11 10 11 12 11 11 12 12 11 10 10 12 13 16 19 20 22 22 22 22 24 27 30 34 37 37 35 33 32 31
5 9 9 6 4 2 3 4 2 6 6 5 5 6 4 4 7 9 7 6 7 8 8 11 13 11 11 13 13 13 13 13 13 13 12 12 13 14 14 14 14 13 13 13 12 12 13 15 16 18 19 21 22 23 24 26 29 30 30 30 29 29 27
4 6 9 8 6 3 2 3 2 5 8 7 6 8 5 1 4 8 8 8 7 7 8 10 12 11 9 10 12 11 11 13 15 16 16 16 16 17 16 16 17 18 18 18 17 16 16 16 16 18 19 21 22 22 23 25 26 26 26 26 26 26 25
5 4 6 9 6 0 1 3 2 4 8 7 7 8 6 5 3 3 7 8 8 7 7 9 13 14 11 10 12 12 11 12 15 19 19 18 18 17 16 16 17 18 19 20 19 19 19 18 18 20 21 22 23 24 25 26 25 25 25 24 24 24 24
7 7 6 3 1 1 2 4 3 4 9 8 6 6 2 3 3 1 2 5 7 7 5 9 13 13 11 11 13 13 12 12 14 18 19 18 18 17 17 18 18 18 19 20 20 19 19 19 21 22 23 24 26 26 26 26 25 25 24 23 22 23 23
8 8 5 5 3 2 4 3 3 7 10 8 5 4 4 2 3 4 5 6 8 10 8 5 9 11 11 12 13 13 11 11 12 16 17 17 18 18 17 18 20 21 22 22 21 20 19 19 20 21 22 23 23 23 22 23 23 22 22 21 21 22 22
7 8 4 7 5 2 3 3 6 8 6 4 3 4 6 7 8 10 12 11 11 14 14 10 7 9 10 10 10 11 10 10 10 13 15 15 16 17 17 18 20 21 22 22 22 23 22 21 20 21 22 23 23 21 20 20 21 20 19 19 20 21 22
9 10 3 5 5 3 2 2 5 5 3 3 2 3 5 8 9 9 12 12 11 13 15 11 7 7 10 8 6 6 7 8 9 9 10 10 10 10 12 15 17 19 21 22 23 25 25 25 25 25 25 24 23 22 21 22 22 21 20 20 20 21 22
7 8 4 3 3 3 3 1 2 3 4 3 3 2 4 8 9 9 10 11 10 12 12 9 5 6 8 8 7 6 6 7 8 8 9 9 8 7 8 10 13 17 20 22 23 24 25 25 25 26 27 26 23 22 22 23 23 22 21 20 20 19 19
4 4 3 3 2 2 3 2 0 3 4 3 2 3 5 7 9 10 11 10 10 10 10 8 6 6 8 9 9 9 8 8 10 10 10 11 10 9 9 10 11 13 15 18 18 20 22 23 23 23 24 24 24 23 23 23 23 21 20 19 19 17 17
0 2 2 2 2 2 3 4 3 1 2 4 6 7 7 8 9 11 11 10 9 9 7 6 5 5 7 8 9 8 8 9 9 10 11 11 12 13 13 13 12 13 15 16 16 16 18 19 19 18 18 19 20 20 20 19 19 18 17 17 16 16 15
4 4 4 3 3 2 2 4 4 4 6 8 8 9 9 9 10 11 10 10 9 8 6 5 5 5 5 6 6 5 5 7 8 10 11 11 12 13 14 13 12 13 15 16 16 16 16 16 16 15 15 14 14 14 14 14 14 14 14 15 14 14 14
4 4 6 6 5 5 4 2 4 8 10 10 9 9 10 9 9 9 10 10 9 7 5 5 4 4 4 5 4 4 4 6 7 8 10 10 10 11 12 12 11 11 12 14 16 16 16 16 16 15 14 14 14 13 12 12 12 12 14 15 14 14 14
6 7 7 8 8 8 8 7 8 11 13 12 10 11 11 11 11 10 10 10 8 6 5 4 3 2 3 4 4 4 6 8 8 9 9 9 9 9 11 11 11 11 12 13 14 15 15 15 15 15 15 16 16 15 13 11 10 9 10 10 10 11 13
8 8 8 9 8 8 9 9 8 10 11 10 10 11 12 13 12 11 10 10 9 7 5 5 4 3 3 5 6 7 9 10 10 10 10 9 8 9 10 11 12 13 13 12 12 12 12 12 13 14 15 16 17 17 16 13 9 6 6 5 5 7 11
10 9 8 8 8 10 11 12 11 11 11 11 10 10 10 12 13 12 10 10 11 10 7 7 7 5 4 6 8 9 11 12 12 12 11 10 9 10 11 13 14 15 16 15 13 12 11 12 12 13 14 14 14 15 16 15 12 9 7 6 6 5 7
12 12 11 9 9 11 13 13 14 13 12 13 13 11 10 11 12 12 12 10 11 12 10 10 10 8 6 7 8 10 11 13 13 13 14 13 13 13 13 15 17 18 18 18 17 17 16 16 16 15 15 15 14 14 15 15 14 13 10 8 9 9 8
12 13 13 11 10 11 13 14 15 15 13 13 14 13 12 12 12 12 12 11 11 12 12 11 12 11 10 10 10 10 11 12 13 14 15 16 17 17 18 18 19 20 21 21 21 21 21 20 19 18 17 17 15 13 13 13 13 13 11 11 13 14 13
Wind_Direction
201 205 226 228 222 222 200 196 215 228 232 245 261 267 274 285 299 269 225 140 129 149 146 160 175 175 184 193 196 197 193 192 196 201 205 205 207 209 207 202 200 202 209 213 211 211 211 209 209 210 215 220 216 211 213 215 213 214 214 212 213 213 212
198 196 221 221 225 242 231 208 210 215 224 243 259 266 261 256 259 253 233 160 146 162 162 164 173 180 190 190 185 189 188 188 192 196 202 204 206 209 209 205 201 203 210 211 209 213 214 210 211 213 215 218 217 213 214 216 216 216 215 215 214 214 215
203 194 221 229 227 234 243 250 243 215 213 225 243 258 265 251 252 249 231 181 152 163 174 175 177 179 189 188 185 193 193 189 191 196 202 207 208 208 209 208 204 206 211 209 208 213 213 211 212 214 217 218 216 215 214 215 217 217 215 215 215 214 215
216 203 219 228 220 221 235 253 263 236 219 213 219 227 244 257 268 265 239 199 123 125 164 182 184 178 189 201 198 198 198 196 196 200 205 210 211 212 212 209 209 213 214 209 207 210 210 210 211 214 218 219 216 215 215 216 217 216 215 214 214 214 213
228 207 213 226 219 210 219 230 239 234 220 215 220 220 227 241 265 292 267 163 84 131 158 176 192 184 191 209 207 198 197 196 195 200 208 212 213 218 218 213 212 216 216 212 207 205 207 208 210 214 217 216 216 214 212 215 216 215 214 214 214 214 213
252 239 218 231 233 218 213 218 228 237 221 211 228 228 217 225 244 266 275 71 97 146 162 174 194 192 191 202 203 197 195 193 195 199 207 215 217 220 219 214 214 216 218 217 209 202 205 211 213 216 218 215 215 213 211 214 216 214 214 214 215 215 214
281 284 265 235 240 228 219 218 219 232 233 220 228 236 219 226 235 243 261 264 125 145 172 177 188 193 191 193 193 194 197 201 203 199 203 215 220 222 220 214 213 216 217 216 211 205 209 216 218 217 218 216 215 215 214 216 217 214 212 213 215 215 214
291 281 263 259 255 231 221 221 217 224 240 242 238 235 235 244 235 224 247 252 126 145 173 169 182 192 182 179 181 182 193 202 203 200 203 211 214 218 220 213 210 212 214 213 211 208 210 215 218 217 217 216 216 217 218 220 221 217 213 213 215 215 215
295 274 261 264 263 240 223 226 222 222 234 243 243 242 248 255 253 259 278 196 116 150 180 161 177 188 160 155 169 182 199 202 202 204 204 204 206 210 214 211 207 206 208 209 209 207 207 211 215 216 217 218 218 219 219 222 222 218 214 213 214 216 217
297 273 280 282 292 293 240 228 229 225 224 231 241 243 245 260 263 273 324 86 126 144 180 160 148 151 129 133 153 182 205 198 193 201 201 198 203 205 203 205 205 204 205 207 207 206 207 210 214 218 220 220 220 222 223 223 220 218 217 214 213 216 218
270 265 287 292 291 278 246 240 253 254 241 258 288 255 233 322 294 277 65 76 127 132 132 158 128 132 129 129 143 167 194 195 191 195 195 193 198 198 195 197 200 204 209 211 211 212 212 214 217 220 222 221 221 223 226 223 217 214 214 212 213 218 221
259 260 269 272 266 261 265 284 307 330 316 293 303 270 237 317 312 337 66 54 89 114 97 8 36 259 274 214 152 154 178 198 201 197 192 191 194 192 191 194 197 203 210 214 217 219 220 220 221 222 225 226 225 225 227 225 219 217 218 221 223 224 225
258 254 253 252 251 256 272 289 297 321 323 298 288 272 259 280 280 274 347 5 14 83 150 244 268 277 281 272 224 171 182 199 202 199 194 189 190 190 190 194 198 202 208 213 216 219 221 222 220 220 222 225 227 228 230 231 230 230 234 238 237 232 231
271 254 253 249 238 245 263 282 280 284 305 309 298 279 272 277 273 272 291 305 290 258 248 251 265 267 268 268 245 213 214 214 194 188 186 185 188 192 193 190 190 195 202 210 214 215 220 223 222 220 219 221 225 228 231 233 234 236 240 241 241 240 239
275 257 254 242 229 240 256 270 283 281 283 289 292 290 286 284 282 279 279 276 266 255 259 273 274 268 267 265 231 208 225 263 200 178 176 183 189 192 193 185 177 185 196 205 211 214 219 224 225 224 221 220 223 225 228 230 231 236 240 240 241 242 241
271 260 254 241 234 246 249 252 268 280 279 268 260 288 301 301 304 292 275 269 269 256 262 272 268 261 252 231 217 214 211 235 242 197 180 183 186 183 181 177 175 189 197 199 206 212 217 221 224 225 225 224 224 224 225 227 230 236 239 239 240 240 239
274 266 257 245 238 245 250 251 267 280 284 271 257 279 291 308 331 314 285 272 265 259 266 259 251 249 240 220 211 213 212 231 264 243 199 192 198 192 183 180 184 193 195 195 199 207 214 217 219 223 226 226 224 223 223 224 228 232 234 235 239 241 240
270 269 259 248 237 236 240 235 289 280 274 265 298 310 300 304 341 333 315 306 287 263 248 241 247 247 236 223 220 223 226 238 268 248 206 205 216 208 198 200 202 200 195 193 197 204 212 215 215 217 222 223 221 223 224 224 226 229 232 236 241 243 244
268 263 242 236 231 215 196 147 357 302 271 259 306 320 307 300 305 308 313 318 306 279 246 237 246 248 231 222 223 229 232 236 251 249 220 217 230 226 214 213 215 213 200 190 196 202 205 210 213 214 217 219 218 222 226 227 230 233 236 240 243 244 246
276 266 241 230 241 14 146 182 2 352 313 294 304 292 273 290 296 303 317 317 303 294 262 237 232 234 238 236 227 225 232 237 246 249 237 233 239 235 226 221 222 228 220 204 205 207 202 207 212 214 218 222 222 223 225 227 230 233 235 238 240 241 243
278 278 266 247 242 263 199 175 78 13 346 322 308 292 299 352 340 323 320 314 313 311 284 249 231 227 241 251 244 234 235 241 246 244 235 234 237 235 232 228 223 226 230 226 225 223 219 220 219 218 222 227 230 229 227 229 232 234 236 238 239 240 242
282 291 288 270 242 213 155 162 116 7 346 329 301 282 269 324 359 343 330 322 322 314 294 269 249 240 245 265 268 259 247 244 245 243 237 235 235 234 234 233 230 228 230 230 228 226 226 226 225 224 224 225 229 232 230 232 236 237 239 240 240 240 241
251 244 274 286 281 150 115 223 215 340 338 328 297 280 255 220 236 348 347 325 310 299 280 259 253 248 244 258 274 275 267 257 252 250 250 252 252 249 248 247 243 240 239 239 239 236 230 225 225 227 227 226 228 229 230 232 234 236 239 240 240 239 238
257 241 234 259 307 151 241 249 238 306 311 299 277 278 269 189 204 213 339 288 287 298 270 237 247 252 244 244 257 268 273 272 266 262 264 270 273 269 261 255 253 253 251 247 247 247 243 238 232 228 227 228 229 230 232 234 235 236 238 236 236 238 239
265 262 222 136 121 241 267 273 259 275 287 285 274 288 311 309 291 302 301 282 289 311 318 275 258 263 254 243 243 253 266 268 264 264 267 271 274 271 264 258 256 256 256 254 253 251 246 242 238 232 228 229 230 230 232 234 235 237 238 236 233 234 238
292 281 232 134 120 284 298 308 285 284 298 308 309 324 319 306 295 292 292 290 293 306 318 321 304 292 287 267 247 249 262 262 261 266 270 272 275 277 274 267 257 250 248 251 255 251 241 232 227 226 226 226 226 225 225 228 232 234 237 237 234 232 235
339 335 337 114 96 337 334 5 315 315 17 32 352 357 331 307 298 294 295 300 311 317 317 318 317 314 312 304 281 267 271 272 273 275 278 285 290 290 285 277 268 260 252 247 244 240 235 228 222 222 226 227 226 224 224 226 228 228 228 230 231 230 230
360 4 16 76 63 323 300 315 317 339 25 26 4 2 321 308 305 306 308 315 334 344 338 332 333 322 311 308 310 312 307 301 294 282 276 285 297 303 297 285 277 272 263 252 242 235 231 225 219 220 223 225 226 223 223 227 227 224 222 222 226 229 227
37 64 69 73 77 350 328 324 55 73 52 16 324 297 305 313 313 312 317 330 349 3 0 353 348 331 318 312 313 316 321 320 311 299 288 282 281 283 281 271 264 258 254 250 246 243 236 225 217 217 217 218 223 223 221 222 222 219 217 217 221 226 226
124 131 103 80 94 65 353 326 303 212 232 268 279 287 295 307 312 313 319 331 347 360 2 355 349 346 337 325 312 309 317 320 315 312 308 294 281 274 267 259 250 243 242 244 241 237 235 229 225 224 220 217 219 221 219 218 218 217 216 217 219 220 218
270 227 189 145 114 97 32 348 321 284 263 266 272 281 290 299 306 314 320 327 336 348 356 353 348 349 345 329 315 311 317 313 305 304 307 303 291 280 270 259 250 239 235 238 235 226 220 220 225 234 239 240 239 234 224 219 218 217 216 217 220 219 216
267 221 197 191 205 226 236 253 277 277 279 284 283 283 288 294 301 313 322 325 329 337 345 350 348 338 319 306 300 295 290 288 285 284 290 295 293 285 276 269 260 249 240 236 236 234 229 225 225 228 234 245 257 258 243 232 229 225 219 217 218 220 219
252 247 238 230 240 262 270 264 266 277 284 289 291 290 290 293 297 305 312 317 325 334 339 338 338 326 289 269 261 250 249 261 270 272 278 287 288 282 277 269 258 253 250 244 241 245 248 248 249 249 244 242 247 251 249 250 254 248 233 223 223 232 234
245 254 242 229 246 278 282 275 279 286 287 288 290 293 295 295 296 296 300 306 311 319 329 324 308 283 254 251 248 240 237 245 255 263 269 272 267 261 260 255 247 246 252 255 251 250 255 261 266 271 269 261 253 247 242 240 242 244 250 254 252 251 248
250 255 241 233 255 271 269 271 282 287 290 293 291 288 290 292 294 295 296 299 301 304 313 311 300 291 268 258 256 250 244 242 244 251 256 255 251 247 243 240 240 243 248 255 259 261 267 273 274 274 274 273 269 262 253 245 232 219 227 271 301 301 270
257 259 258 259 267 267 265 274 282 283 286 291 291 288 287 285 286 289 290 291 293 295 297 294 290 288 280 269 264 259 253 248 245 246 249 249 247 245 242 243 246 248 250 253 256 259 265 270 273 272 270 270 269 266 261 259 253 237 229 252 287 302 300
257 259 266 271 269 265 269 278 283 283 285 287 287 289 289 287 288 291 289 289 289 288 287 287 286 287 284 274 265 259 258 259 256 253 254 255 256 254 253 254 257 259 258 256 254 256 259 262 264 264 263 261 262 262 262 267 270 265 256 259 270 277 282
Height
3139 3140 3140 3141 3142 3140 3142 3146 3147 3147 3147 3147 3144 3142 3141 3141 3140 3139 3139 3144 3147 3148 3150 3151 3152 3155 3156 3157 3158 3158 3159 3161 3163 3166 3168 3171 3174 3177 3179 3181 3184 3186 3186 3188 3189 3190 3192 3194 3196 3198 3199 3199 3200 3202 3204 3205 3207 3208 3209 3211 3212 3214 3215
3138 3140 3141 3142 3142 3141 3141 3143 3144 3146 3148 3147 3146 3143 3141 3140 3140 3138 3136 3140 3144 3146 3148 3150 3151 3154 3155 3156 3158 3158 3160 3161 3162 3164 3167 3169 3172 3175 3177 3180 3182 3183 3184 3186 3188 3189 3191 3193 3195 3197 3198 3198 3199 3201 3203 3204 3206 3207 3209 3210 3211 3213 3214
3137 3140 3142 3142 3142 3142 3141 3141 3142 3144 3144 3145 3146 3146 3143 3140 3139 3136 3133 3137 3143 3146 3148 3150 3152 3153 3155 3156 3157 3158 3160 3161 3162 3164 3166 3167 3170 3172 3175 3178 3179 3180 3182 3184 3186 3188 3190 3192 3194 3195 3196 3197 3199 3200 3201 3203 3205 3207 3208 3209 3211 3212 3213
3138 3140 3141 3140 3140 3141 3142 3142 3142 3142 3141 3142 3144 3145 3144 3142 3140 3137 3133 3136 3143 3146 3148 3150 3151 3153 3154 3155 3156 3158 3159 3160 3161 3163 3164 3166 3168 3169 3172 3175 3177 3178 3181 3183 3185 3187 3189 3191 3193 3194 3195 3196 3198 3199 3200 3202 3204 3206 3207 3208 3210 3211 3213
3138 3138 3139 3139 3139 3140 3142 3142 3141 3140 3139 3140 3142 3142 3143 3143 3141 3139 3136 3139 3145 3146 3147 3150 3150 3151 3153 3153 3155 3157 3158 3159 3160 3161 3163 3165 3166 3167 3169 3172 3174 3176 3179 3182 3184 3186 3188 3189 3191 3192 3194 3195 3197 3198 3199 3201 3203 3205 3206 3207 3209 3210 3212
3138 3137 3138 3139 3139 3138 3140 3141 3141 3139 3138 3140 3141 3139 3140 3141 3141 3140 3139 3142 3147 3146 3147 3150 3149 3148 3151 3153 3155 3157 3157 3158 3159 3160 3162 3163 3165 3165 3167 3169 3172 3174 3177 3181 3183 3185 3186 3188 3190 3191 3192 3194 3195 3197 3198 3200 3201 3203 3205 3206 3207 3209 3211
3139 3136 3136 3138 3138 3138 3139 3140 3141 3140 3139 3140 3139 3137 3137 3139 3140 3141 3139 3141 3146 3147 3148 3150 3148 3147 3150 3152 3153 3155 3156 3157 3158 3159 3160 3161 3163 3163 3164 3166 3169 3172 3176 3179 3182 3183 3185 3187 3189 3189 3191 3192 3194 3196 3197 3199 3201 3202 3204 3205 3206 3208 3209
3140 3138 3137 3136 3137 3137 3137 3137 3139 3140 3139 3138 3137 3137 3139 3138 3136 3137 3136 3138 3144 3147 3147 3149 3147 3145 3149 3151 3151 3153 3155 3156 3157 3158 3159 3159 3160 3161 3161 3163 3166 3170 3174 3178 3180 3182 3183 3185 3186 3187 3189 3191 3192 3194 3197 3198 3199 3201 3203 3204 3205 3207 3208
3142 3141 3139 3137 3135 3135 3135 3136 3137 3139 3139 3139 3139 3138 3139 3138 3135 3135 3136 3139 3145 3147 3147 3148 3147 3145 3148 3151 3152 3152 3154 3155 3156 3157 3158 3158 3159 3159 3159 3161 3163 3166 3170 3174 3177 3179 3180 3182 3183 3185 3187 3189 3191 3193 3195 3197 3199 3200 3201 3203 3204 3205 3207
3147 3146 3142 3139 3138 3136 3136 3137 3138 3138 3138 3140 3140 3139 3139 3139 3138 3138 3139 3142 3146 3147 3148 3148 3147 3146 3145 3149 3154 3154 3153 3155 3156 3156 3157 3157 3157 3158 3159 3161 3163 3165 3168 3170 3173 3176 3178 3180 3183 3185 3187 3189 3191 3192 3194 3196 3198 3199 3200 3202 3203 3204 3205
3148 3147 3145 3143 3141 3139 3138 3138 3137 3137 3137 3138 3139 3138 3139 3141 3141 3141 3142 3145 3147 3148 3148 3148 3148 3147 3145 3147 3153 3154 3153 3155 3156 3156 3156 3156 3156 3157 3159 3160 3162 3164 3167 3169 3172 3175 3178 3180 3182 3184 3186 3188 3190 3191 3193 3194 3196 3198 3200 3201 3202 3203 3204
3145 3146 3145 3144 3143 3141 3139 3138 3137 3137 3137 3139 3140 3139 3140 3142 3143 3142 3143 3146 3149 3149 3148 3147 3148 3149 3148 3147 3150 3154 3155 3155 3156 3157 3157 3157 3157 3157 3158 3159 3161 3163 3165 3168 3172 3174 3177 3178 3180 3183 3185 3186 3188 3189 3190 3191 3192 3194 3196 3198 3200 3201 3203
3143 3144 3144 3144 3144 3143 3141 3140 3140 3140 3140 3140 3141 3141 3141 3143 3144 3143 3144 3146 3147 3148 3148 3147 3148 3149 3149 3148 3149 3152 3155 3155 3156 3157 3157 3157 3157 3157 3158 3159 3160 3161 3163 3166 3169 3172 3175 3176 3177 3179 3182 3184 3186 3187 3187 3187 3187 3189 3192 3195 3197 3199 3201
3142 3142 3142 3143 3143 3143 3142 3142 3142 3142 3142 3141 3141 3142 3142 3143 3144 3144 3146 3146 3146 3147 3148 3148 3149 3148 3149 3149 3149 3151 3153 3152 3154 3157 3158 3158 3157 3156 3157 3158 3159 3161 3162 3164 3166 3169 3172 3174 3175 3176 3179 3182 3184 3185 3186 3186 3187 3188 3191 3194 3195 3197 3198
3141 3141 3141 3141 3142 3143 3143 3143 3143 3143 3143 3143 3143 3143 3143 3144 3145 3145 3146 3146 3145 3146 3147 3148 3149 3148 3148 3149 3149 3150 3151 3150 3151 3156 3159 3158 3156 3155 3155 3156 3158 3159 3160 3162 3164 3166 3169 3172 3174 3176 3179 3181 3183 3184 3185 3186 3187 3188 3190 3192 3193 3194 3195
3140 3140 3140 3140 3142 3143 3144 3144 3144 3144 3143 3143 3145 3144 3143 3144 3145 3146 3147 3147 3146 3146 3147 3148 3148 3148 3147 3148 3148 3148 3150 3150 3150 3152 3155 3156 3155 3154 3154 3155 3157 3158 3159 3159 3161 3163 3167 3170 3172 3175 3178 3180 3181 3181 3183 3184 3185 3186 3187 3189 3190 3191 3192
3140 3140 3140 3140 3142 3143 3143 3143 3143 3143 3143 3144 3145 3144 3144 3145 3146 3147 3147 3146 3145 3146 3147 3147 3147 3146 3146 3147 3148 3148 3148 3149 3149 3149 3150 3153 3154 3153 3152 3153 3156 3156 3157 3158 3160 3162 3166 3168 3169 3172 3174 3175 3177 3177 3179 3180 3182 3183 3184 3186 3187 3188 3189
3141 3140 3140 3140 3141 3142 3142 3142 3143 3143 3143 3144 3144 3144 3145 3147 3148 3148 3147 3145 3144 3146 3146 3146 3146 3145 3145 3148 3149 3148 3148 3149 3149 3148 3148 3150 3151 3151 3151 3152 3153 3153 3156 3160 3162 3164 3165 3166 3167 3170 3171 3171 3172 3173 3175 3177 3178 3179 3180 3181 3183 3184 3185
3140 3140 3140 3140 3140 3140 3142 3143 3144 3144 3144 3145 3146 3146 3146 3147 3148 3148 3147 3145 3146 3146 3145 3145 3145 3145 3145 3146 3148 3148 3148 3149 3149 3148 3147 3147 3148 3149 3150 3150 3151 3151 3154 3159 3162 3164 3165 3166 3167 3169 3169 3168 3168 3169 3171 3174 3175 3176 3176 3177 3179 3180 3182
3141 3140 3139 3139 3139 3140 3143 3144 3144 3144 3145 3146 3147 3146 3146 3146 3146 3147 3146 3146 3146 3146 3145 3144 3144 3144 3144 3145 3147 3148 3148 3148 3148 3147 3146 3147 3147 3148 3149 3149 3150 3151 3152 3156 3159 3161 3163 3164 3165 3166 3166 3166 3166 3167 3169 3171 3171 3172 3172 3174 3175 3177 3180
3141 3141 3139 3138 3138 3140 3142 3143 3144 3145 3146 3146 3146 3146 3146 3145 3146 3146 3146 3145 3145 3144 3144 3144 3143 3144 3145 3146 3147 3148 3147 3147 3146 3146 3146 3146 3146 3147 3148 3148 3149 3150 3151 3153 3155 3157 3159 3160 3162 3163 3164 3165 3165 3165 3166 3167 3167 3168 3169 3171 3172 3174 3177
3141 3142 3141 3139 3137 3139 3142 3143 3144 3146 3146 3146 3146 3146 3145 3144 3145 3146 3146 3145 3144 3143 3143 3143 3143 3145 3147 3147 3147 3146 3146 3146 3145 3144 3145 3145 3146 3146 3147 3147 3147 3147 3148 3150 3151 3153 3155 3157 3159 3160 3161 3162 3163 3163 3164 3165 3165 3166 3168 3168 3169 3171 3173
3140 3141 3141 3140 3139 3140 3142 3143 3144 3145 3146 3145 3145 3145 3144 3143 3144 3145 3146 3145 3143 3142 3142 3142 3142 3143 3144 3145 3146 3146 3146 3145 3145 3144 3144 3145 3147 3148 3148 3148 3147 3147 3146 3148 3149 3151 3153 3154 3156 3157 3158 3159 3160 3160 3161 3162 3163 3164 3165 3167 3168 3169 3171
3139 3138 3139 3140 3141 3142 3142 3143 3143 3143 3143 3143 3143 3143 3143 3143 3144 3144 3145 3144 3142 3141 3140 3140 3140 3141 3141 3142 3145 3146 3146 3146 3145 3144 3144 3145 3147 3148 3148 3147 3147 3147 3147 3147 3148 3150 3151 3152 3153 3154 3155 3156 3157 3158 3159 3160 3161 3162 3163 3165 3166 3167 3169
3138 3138 3137 3139 3141 3143 3142 3142 3142 3141 3141 3142 3143 3143 3143 3144 3144 3144 3143 3142 3141 3140 3140 3140 3141 3141 3141 3141 3142 3144 3145 3146 3145 3144 3144 3144 3144 3145 3146 3146 3146 3146 3147 3148 3148 3149 3150 3151 3152 3153 3154 3155 3155 3157 3158 3159 3160 3161 3162 3163 3164 3166 3166
3137 3137 3137 3138 3141 3142 3142 3142 3141 3140 3141 3142 3143 3143 3143 3143 3144 3143 3142 3141 3142 3141 3141 3143 3143 3143 3142 3142 3142 3143 3144 3145 3144 3144 3143 3143 3143 3143 3144 3145 3145 3146 3146 3147 3148 3149 3150 3150 3151 3152 3153 3154 3154 3155 3156 3158 3159 3160 3161 3162 3163 3164 3164
3138 3138 3138 3140 3142 3143 3142 3142 3141 3141 3141 3142 3142 3143 3142 3142 3142 3141 3140 3141 3142 3141 3141 3143 3144 3144 3143 3142 3143 3143 3143 3143 3143 3143 3142 3142 3142 3143 3144 3144 3145 3146 3146 3146 3146 3147 3148 3149 3149 3151 3151 3152 3153 3153 3154 3155 3157 3158 3159 3160 3161 3162 3162
3140 3141 3141 3142 3143 3143 3143 3142 3142 3141 3141 3142 3142 3142 3142 3141 3141 3140 3140 3140 3141 3141 3141 3142 3143 3144 3143 3142 3142 3142 3143 3143 3143 3142 3142 3142 3142 3143 3144 3144 3145 3146 3146 3145 3145 3146 3147 3147 3148 3149 3150 3151 3151 3152 3152 3154 3155 3155 3156 3158 3159 3160 3160
3142 3142 3143 3143 3143 3143 3142 3142 3142 3142 3142 3141 3142 3142 3141 3141 3140 3139 3140 3140 3141 3141 3142 3141 3141 3143 3143 3143 3142 3142 3142 3143 3143 3143 3143 3142 3142 3143 3144 3144 3144 3145 3145 3146 3146 3147 3147 3147 3148 3148 3148 3149 3150 3150 3151 3152 3153 3154 3154 3155 3157 3158 3158
3142 3142 3143 3144 3144 3143 3143 3142 3142 3142 3142 3141 3141 3141 3141 3141 3140 3139 3140 3140 3141 3141 3141 3140 3140 3142 3143 3143 3142 3142 3142 3143 3144 3144 3144 3143 3143 3143 3143 3143 3144 3144 3144 3145 3146 3146 3146 3147 3148 3148 3148 3148 3148 3149 3149 3150 3151 3152 3153 3154 3155 3156 3156
3142 3142 3142 3143 3144 3144 3143 3142 3141 3141 3140 3140 3140 3140 3141 3141 3140 3140 3139 3140 3140 3141 3140 3139 3139 3140 3141 3142 3142 3142 3142 3143 3144 3144 3144 3144 3143 3143 3143 3143 3144 3144 3144 3144 3144 3144 3145 3146 3147 3148 3149 3149 3149 3149 3149 3149 3150 3150 3151 3152 3154 3155 3155
3141 3141 3141 3142 3142 3142 3142 3141 3141 3140 3140 3140 3140 3140 3140 3140 3140 3140 3139 3139 3140 3140 3140 3140 3140 3139 3139 3139 3140 3140 3140 3142 3143 3143 3142 3142 3143 3143 3143 3143 3144 3144 3144 3144 3144 3144 3145 3145 3146 3147 3147 3148 3148 3148 3148 3149 3149 3149 3149 3150 3152 3153 3154
3139 3139 3140 3140 3140 3140 3139 3140 3140 3140 3140 3140 3140 3139 3139 3139 3140 3140 3139 3138 3138 3139 3139 3140 3139 3139 3138 3138 3138 3138 3138 3139 3140 3141 3141 3141 3141 3142 3143 3143 3143 3144 3144 3145 3145 3145 3146 3146 3146 3147 3146 3147 3147 3147 3148 3149 3149 3149 3149 3149 3150 3151 3152
3138 3138 3139 3139 3139 3139 3138 3138 3139 3139 3139 3139 3139 3139 3138 3138 3138 3139 3138 3138 3138 3138 3139 3139 3139 3139 3139 3138 3138 3138 3138 3138 3139 3139 3140 3140 3141 3141 3142 3143 3143 3143 3144 3145 3145 3146 3146 3146 3146 3146 3146 3146 3147 3147 3147 3148 3149 3149 3149 3149 3150 3150 3151
3136 3136 3137 3138 3138 3138 3137 3137 3138 3138 3138 3138 3137 3137 3137 3136 3137 3137 3137 3137 3137 3137 3138 3138 3138 3138 3138 3138 3138 3138 3138 3138 3138 3138 3139 3140 3140 3141 3141 3142 3143 3143 3143 3144 3144 3145 3146 3146 3146 3146 3146 3146 3147 3147 3148 3148 3148 3149 3149 3149 3150 3150 3150
3135 3135 3135 3136 3137 3136 3136 3136 3136 3136 3137 3136 3136 3136 3136 3136 3136 3136 3136 3137 3137 3137 3137 3137 3136 3137 3137 3137 3137 3137 3137 3138 3138 3138 3138 3139 3139 3140 3140 3141 3141 3141 3142 3142 3143 3143 3144 3144 3145 3145 3145 3145 3146 3146 3147 3148 3148 3148 3148 3149 3150 3150 3149
3134 3134 3134 3134 3135 3135 3135 3135 3135 3134 3135 3135 3134 3134 3134 3134 3135 3135 3135 3135 3135 3135 3135 3135 3135 3135 3136 3136 3137 3137 3136 3136 3137 3137 3138 3138 3138 3139 3139 3139 3139 3140 3140 3140 3141 3142 3142 3142 3143 3143 3144 3144 3145 3145 3146 3146 3147 3147 3147 3148 3148 3149 3149